[[[{"header":{"parameterUnit":"kt","parameterCategory":2,"dx":1,"dy":1,"la1":30.253999710083008,"la2":30.299108505249023,"lo1":-89.0895004272461,"lo2":-89.04439544677734,"nx":28,"ny":28,"refTime":"2022-09-26T21:00:00:Z","depth":0,"parameterNumber":1,"parameterNumberName":"U-component_of_WINDS"},"data":[-5.3897,-5.3961,-5.3939,-5.4003,-5.3993,-5.4033,-5.404,-5.4046,-5.4046,-5.4091,-5.4113,-5.4097,-5.4088,-5.4109,-5.4132,-5.4124,-5.4136,-5.4175,-5.4159,-5.4003,-5.398,-5.3959,-5.3941,-5.4178,-5.4178,-5.4324,-5.4325,-5.4326,-5.3784,-5.3775,-5.3802,-5.3813,-5.3836,-5.3784,-5.3789,-5.3812,-5.3849,-5.3849,-5.3869,-5.3907,-5.3934,-5.3911,-5.3934,-5.3964,-5.3941,-5.3972,-5.3969,-5.3969,-5.3801,-5.3783,-5.399,-5.399,-5.399,-5.3989,-5.3989,-5.3989,-5.3572,-5.3612,-5.3605,-5.3634,-5.3634,-5.3641,-5.3675,-5.3654,-5.3681,-5.3701,-5.3669,-5.3711,-5.3707,-5.3723,-5.3722,-5.3754,-5.3717,-5.3743,-5.375,-5.3757,-5.3769,-5.3561,-5.3757,-5.3756,-5.3756,-5.3755,-5.3755,0,-5.341,-5.3389,-5.3413,-5.3431,-5.3451,-5.3462,-5.3469,-5.349,-5.3436,-5.346,-5.3493,-5.3509,-5.3539,-5.3568,-5.3584,-5.3578,-5.3527,-5.352,-5.3538,-5.3554,-5.3567,-5.3561,-5.3289,-5.3514,-5.3512,-5.3511,-5.3509,-5.3509,-5.3196,-5.3245,-5.3227,-5.3247,-5.3245,-5.3278,-5.3294,-5.3242,-5.3261,-5.3262,-5.33,-5.3328,-5.3348,-5.3405,-5.3381,-5.3404,-5.3379,-5.3468,-5.3383,-5.3396,-5.3381,-5.3379,-5.3383,-5.3486,-5.3489,-5.3491,-5.3493,0,-5.3077,-5.3039,-5.3108,-5.3085,-5.308,-5.3135,-5.3115,-5.3153,-5.3128,-5.3177,-5.3186,-5.3148,-5.3181,-5.3142,-5.3173,-5.3151,-5.3241,-5.3216,-5.3242,-5.3235,-5.331,-5.3304,-5.3561,-5.3592,-5.3346,-5.3348,-5.335,0,-5.2879,-5.2946,-5.2885,-5.2927,-5.3,-5.2946,-5.3019,-5.3005,-5.3,-5.3038,-5.2973,-5.301,-5.2954,-5.2986,-5.2954,-5.302,-5.3026,-5.3013,-5.3004,-5.302,-5.3021,-5.3029,-5.3018,-5.2981,-5.298,-5.2979,-5.2978,0,-5.2697,-5.2743,-5.2811,-5.2816,-5.2798,-5.2831,-5.2825,-5.2819,-5.2835,-5.2849,-5.2858,-5.2879,-5.2891,-5.2908,-5.2867,-5.2811,-5.2947,-5.2861,-5.2934,-5.2935,-5.2967,-5.2966,-5.3202,-5.2976,-5.2976,-5.2976,-5.2975,0,-5.2532,-5.2546,-5.2651,-5.2634,-5.2648,-5.2693,-5.2709,-5.2738,-5.2737,-5.2719,-5.273,-5.2682,-5.2737,-5.2654,-5.2728,-5.2667,-5.2682,-5.2674,-5.2679,-5.2682,-5.2591,-5.2731,-5.2959,-5.2982,-5.2684,-5.2682,-5.2679,0,-5.2335,-5.2429,-5.2383,-5.2484,-5.2522,-5.2446,-5.2495,-5.2496,-5.2476,-5.2506,-5.2484,-5.2519,-5.2449,-5.2455,-5.2496,-5.2476,-5.2556,-5.2464,-5.2508,-5.2511,-5.2511,-5.2721,-5.2766,-5.2913,-5.2648,-5.2651,-5.2654,0,-5.2177,-5.2154,-5.2175,-5.2178,-5.2169,-5.2201,-5.2257,-5.2279,-5.2302,-5.2309,-5.2355,-5.2403,-5.2352,-5.2362,-5.2325,-5.2371,-5.25,-5.231,-5.231,-5.2346,-5.2628,-5.267,-5.2695,-5.2466,-5.2469,-5.2472,-5.2628,0,-5.1936,-5.1978,-5.2034,-5.2042,-5.206,-5.2121,-5.2077,-5.2102,-5.2064,-5.2042,-5.2109,-5.21,-5.2123,-5.2141,-5.2105,-5.2222,-5.2196,-5.2142,-5.2059,-5.2197,-5.2248,-5.2268,-5.1988,-5.1985,-5.1983,-5.1981,0,0,-5.1757,-5.1816,-5.1764,-5.1817,-5.1829,-5.1749,-5.1818,-5.182,-5.1828,-5.1838,-5.1791,-5.1858,-5.1852,-5.1938,-5.1978,-5.1988,-5.2005,-5.1958,-5.2132,-5.2149,-5.2164,-5.2219,-5.2241,-5.1977,-5.1976,-5.1975,-5.1974,0,-5.166,-5.1655,-5.1723,-5.1723,-5.1721,-5.1694,-5.171,-5.1695,-5.1684,-5.1749,-5.1683,-5.1718,-5.1773,-5.1775,-5.1784,-5.1946,-5.1895,-5.1957,-5.2058,-5.2111,-5.2131,-5.2148,-5.2206,-5.2228,-5.1969,-5.1969,-5.1969,0,-5.1497,-5.1485,-5.1513,-5.1536,-5.1534,-5.1576,-5.1478,-5.1527,-5.1557,-5.1468,-5.1534,-5.1523,-5.1523,-5.161,-5.1648,-5.1606,-5.1798,-5.173,-5.1743,-5.1746,-5.1795,-5.1819,-5.184,-5.1557,-5.1556,-5.1555,0,0,-5.1419,-5.1458,-5.1429,-5.1512,-5.1516,-5.1477,-5.1494,-5.1458,-5.146,-5.1461,-5.1445,-5.1449,-5.148,-5.1502,-5.1529,-5.163,-5.1626,-5.1681,-5.17,-5.1716,-5.1729,-5.1781,-5.1805,-5.155,-5.155,-5.155,0,0,-5.1382,-5.1351,-5.1313,-5.1404,-5.1407,-5.1384,-5.1437,-5.139,-5.1409,-5.1398,-5.134,-5.1339,-5.1419,-5.1411,-5.1352,-5.1499,-5.1418,-5.1431,-5.1501,-5.1525,-5.1544,-5.1545,-5.1251,0,0,0,0,0,-5.126,-5.1355,-5.132,-5.1329,-5.1358,-5.1403,-5.1407,-5.1361,-5.1304,-5.1347,-5.1327,-5.127,-5.1367,-5.1314,-5.1324,-5.139,-5.1489,-5.15,-5.151,-5.1624,-5.1649,-5.1671,0,0,0,0,0,0,-5.1263,-5.1274,-5.1317,-5.13,-5.1306,-5.14,-5.1294,-5.1284,-5.1299,-5.1287,-5.1276,-5.127,-5.1232,-5.1305,-5.1315,-5.1379,-5.1248,-5.1493,-5.1502,-5.1511,-5.1632,-5.1653,-5.1671,0,0,0,0,0,-5.1266,-5.1274,-5.1334,-5.1298,-5.1303,-5.1265,-5.129,-5.128,-5.1291,-5.126,-5.1252,-5.1255,-5.1235,-5.124,-5.1311,-5.1376,-5.1241,-5.1245,-5.1499,-5.1506,-5.1513,-5.1643,0,0,0,0,0,0,-5.1267,-5.1266,-5.1334,-5.1334,-5.1259,-5.1258,-5.1257,-5.1278,-5.1262,-5.1256,-5.1236,-5.1227,-5.1238,-5.1241,-5.1246,-5.1378,-5.1235,-5.1239,-5.1242,-5.1505,-5.151,-5.1515,0,0,0,0,0,0,-5.1261,-5.1267,-5.1334,-5.1287,-5.1281,-5.1253,-5.1252,-5.1305,-5.1263,-5.1239,-5.1231,-5.1233,-5.1232,-5.1243,-5.1246,-5.1332,-5.1231,-5.1235,-5.1237,-5.1239,-5.1509,-5.1514,0,0,0,0,0,0,-5.1263,-5.1268,-5.1286,-5.1282,-5.1277,-5.1272,-5.13,-5.1333,-5.1223,-5.1241,-5.1212,-5.1207,-5.1236,-5.1237,-5.1247,-5.1332,-5.1332,-5.1231,-5.1234,-5.1235,-5.1237,0,0,0,0,0,0,0,-5.1264,-5.1243,-5.1334,-5.1278,-5.1273,-5.1333,-5.1333,-5.1333,-5.1222,-5.1217,-5.1213,-5.1209,-5.121,-5.1214,-5.1218,-5.1332,0,0,-5.1231,-5.1232,0,0,0,0,0,0,0,0,-5.124,-5.1242,-5.1334,-5.1334,-5.1334,-5.1333,-5.1333,-5.1333,-5.1221,-5.1217,-5.1214,-5.121,-5.1211,-5.1214,-5.1218,0,0,0,0,0,0,0,0,0,0,0,0,0,0,0,-5.1334,-5.1334,0,-5.1333,-5.1333,-5.1333,-5.122,-5.1218,-5.1215,-5.1212,-5.1212,-5.1215,-5.1217,0,0,0,0,0,0,0,0,0,0,0,0,0,0,0,0,0,0,0,0,0,0,0,0,0,0,0,0,0,0,0,0,0,0,0,0,0,0,0,0,0,0,0,0,0,0,0,0,0,0,0,0,0,0,0,0,0,0,0,0,0,0,0,0,0,0,0,0,0]}],[{"header":{"parameterUnit":"kt","parameterCategory":2,"dx":1,"dy":1,"la1":30.253999710083008,"la2":30.299108505249023,"lo1":-89.0895004272461,"lo2":-89.04439544677734,"nx":28,"ny":28,"refTime":"2022-09-26T21:00:00:Z","depth":0,"parameterNumber":2,"parameterNumberName":"V-component_of_WINDS"},"data":[-14.6824,-14.6965,-14.6964,-14.7123,-14.7148,-14.7256,-14.7293,-14.734,-14.7375,-14.7499,-14.7569,-14.7578,-14.7608,-14.7688,-14.7761,-14.7761,-14.7792,-14.7846,-14.7837,-14.7606,-14.7574,-14.7543,-14.751,-14.7853,-14.7853,-14.8077,-14.8079,-14.8081,-14.6658,-14.6687,-14.677,-14.685,-14.6921,-14.687,-14.6927,-14.6988,-14.7084,-14.7128,-14.7196,-14.7303,-14.7385,-14.7397,-14.7474,-14.7536,-14.7513,-14.7557,-14.7551,-14.7557,-14.731,-14.7276,-14.7574,-14.7574,-14.7574,-14.7574,-14.7574,-14.7574,-14.6357,-14.6442,-14.6489,-14.6579,-14.6618,-14.667,-14.6748,-14.6758,-14.6837,-14.692,-14.6898,-14.7003,-14.7043,-14.7131,-14.7158,-14.7238,-14.7188,-14.7232,-14.7244,-14.7255,-14.727,-14.6949,-14.7251,-14.725,-14.7249,-14.7248,-14.7247,0,-14.6135,-14.6129,-14.6208,-14.6288,-14.6352,-14.6412,-14.6464,-14.6512,-14.6489,-14.6554,-14.6647,-14.6699,-14.68,-14.6885,-14.6954,-14.6971,-14.6919,-14.6912,-14.6943,-14.6956,-14.696,-14.696,-14.6558,-14.6903,-14.69,-14.6898,-14.6896,-14.6895,-14.5831,-14.5929,-14.5975,-14.6031,-14.606,-14.6149,-14.6201,-14.6173,-14.6228,-14.6286,-14.6359,-14.6444,-14.651,-14.6655,-14.6658,-14.6732,-14.6706,-14.6839,-14.6716,-14.6726,-14.6708,-14.6703,-14.6712,-14.6863,-14.6867,-14.687,-14.6873,0,-14.566,-14.5654,-14.5804,-14.5838,-14.5849,-14.5952,-14.5979,-14.6059,-14.6057,-14.6167,-14.619,-14.6186,-14.6275,-14.6256,-14.6352,-14.634,-14.6505,-14.6478,-14.6492,-14.6485,-14.6602,-14.6592,-14.6985,-14.7035,-14.668,-14.6683,-14.6686,0,-14.5397,-14.5526,-14.5509,-14.5596,-14.5737,-14.5706,-14.5845,-14.5857,-14.5891,-14.5977,-14.5916,-14.5997,-14.596,-14.6038,-14.6019,-14.615,-14.6167,-14.6165,-14.6158,-14.617,-14.6171,-14.6196,-14.6179,-14.6138,-14.6136,-14.6135,-14.6133,0,-14.513,-14.5269,-14.5411,-14.5441,-14.5488,-14.5554,-14.5575,-14.5612,-14.5661,-14.5721,-14.5752,-14.5824,-14.5863,-14.5918,-14.5893,-14.5811,-14.6052,-14.5934,-14.6049,-14.605,-14.6102,-14.6099,-14.6454,-14.6131,-14.613,-14.6129,-14.6129,0,-14.4915,-14.4981,-14.5187,-14.5224,-14.5261,-14.5353,-14.5423,-14.5497,-14.5539,-14.5534,-14.558,-14.5535,-14.5648,-14.5532,-14.5687,-14.5587,-14.5628,-14.5635,-14.5643,-14.5651,-14.5521,-14.5724,-14.6064,-14.6098,-14.566,-14.5656,-14.5653,0,-14.4611,-14.4816,-14.479,-14.4984,-14.5076,-14.5003,-14.5103,-14.5142,-14.5144,-14.5219,-14.5218,-14.5302,-14.5212,-14.5235,-14.5315,-14.5316,-14.5446,-14.5298,-14.5402,-14.5407,-14.5395,-14.5708,-14.5763,-14.5992,-14.5603,-14.5608,-14.5612,0,-14.4373,-14.443,-14.4466,-14.4499,-14.4547,-14.4622,-14.4738,-14.4816,-14.4868,-14.4917,-14.5011,-14.5129,-14.5065,-14.5104,-14.5073,-14.5157,-14.5357,-14.5076,-14.5076,-14.5127,-14.5575,-14.5628,-14.5666,-14.5317,-14.5324,-14.5328,-14.5572,0,-14.4052,-14.4152,-14.425,-14.4323,-14.4378,-14.4498,-14.4479,-14.4539,-14.4506,-14.4503,-14.4641,-14.4664,-14.4739,-14.4777,-14.4743,-14.494,-14.4903,-14.4834,-14.4717,-14.4923,-14.5003,-14.5035,-14.4601,-14.4597,-14.4594,-14.4592,0,0,-14.3762,-14.3905,-14.3871,-14.3982,-14.4027,-14.3946,-14.4076,-14.4108,-14.4175,-14.4206,-14.4142,-14.4311,-14.4332,-14.4499,-14.4562,-14.4592,-14.4625,-14.4552,-14.4825,-14.4852,-14.4876,-14.4961,-14.4996,-14.4587,-14.4585,-14.4584,-14.4584,0,-14.3641,-14.367,-14.38,-14.3833,-14.3881,-14.3872,-14.3904,-14.3935,-14.3938,-14.4072,-14.4001,-14.4079,-14.4214,-14.4246,-14.4279,-14.4533,-14.4472,-14.4557,-14.4701,-14.4796,-14.4826,-14.4853,-14.4943,-14.4976,-14.4576,-14.4577,-14.4577,0,-14.3404,-14.3429,-14.349,-14.3587,-14.3616,-14.371,-14.3586,-14.3689,-14.3758,-14.3659,-14.3792,-14.3802,-14.3841,-14.4003,-14.4073,-14.4016,-14.4335,-14.4229,-14.4247,-14.4254,-14.4344,-14.4381,-14.4413,-14.3987,-14.3985,-14.3984,0,0,-14.3301,-14.3393,-14.3409,-14.3559,-14.3583,-14.3571,-14.3617,-14.3589,-14.3629,-14.3645,-14.3655,-14.3694,-14.3771,-14.3822,-14.3893,-14.4073,-14.4077,-14.4158,-14.4185,-14.4208,-14.4227,-14.4324,-14.436,-14.3976,-14.3976,-14.3976,0,0,-14.325,-14.3275,-14.3235,-14.3408,-14.345,-14.3472,-14.3564,-14.3514,-14.3576,-14.3559,-14.3511,-14.352,-14.3669,-14.368,-14.3585,-14.3851,-14.3737,-14.3759,-14.3838,-14.3873,-14.39,-14.3894,-14.3456,0,0,0,0,0,-14.3115,-14.3273,-14.3236,-14.3262,-14.3382,-14.3493,-14.3508,-14.3474,-14.3395,-14.3469,-14.3469,-14.3401,-14.3619,-14.3534,-14.3558,-14.3664,-14.3882,-14.3898,-14.3914,-14.4059,-14.4096,-14.4126,0,0,0,0,0,0,-14.3125,-14.3157,-14.3232,-14.3262,-14.3288,-14.3487,-14.3346,-14.3341,-14.3386,-14.3372,-14.3403,-14.3402,-14.3372,-14.3518,-14.3541,-14.3643,-14.3448,-14.3888,-14.3902,-14.3915,-14.4071,-14.4101,-14.4127,0,0,0,0,0,-14.3133,-14.3159,-14.336,-14.3259,-14.3282,-14.3275,-14.334,-14.3334,-14.3368,-14.3369,-14.3365,-14.3339,-14.3376,-14.3393,-14.3532,-14.3633,-14.3432,-14.3441,-14.3897,-14.3909,-14.3919,-14.4086,0,0,0,0,0,0,-14.3139,-14.3153,-14.3363,-14.3369,-14.3197,-14.3263,-14.3272,-14.3329,-14.3361,-14.336,-14.3302,-14.329,-14.3381,-14.3393,-14.3406,-14.3632,-14.3419,-14.3428,-14.3434,-14.3906,-14.3915,-14.3923,0,0,0,0,0,0,-14.3139,-14.3159,-14.3366,-14.329,-14.3286,-14.3252,-14.3261,-14.3372,-14.3363,-14.3292,-14.3283,-14.3296,-14.336,-14.3394,-14.3404,-14.3579,-14.3409,-14.3418,-14.3424,-14.3427,-14.3913,-14.392,0,0,0,0,0,0,-14.3147,-14.3163,-14.3288,-14.3286,-14.3282,-14.3342,-14.335,-14.3473,-14.3302,-14.3291,-14.3285,-14.3277,-14.3363,-14.3372,-14.3403,-14.3575,-14.3578,-14.341,-14.3415,-14.3419,-14.3422,0,0,0,0,0,0,0,-14.3153,-14.305,-14.3331,-14.3282,-14.3279,-14.3421,-14.3422,-14.3424,-14.33,-14.3293,-14.3287,-14.328,-14.3362,-14.3371,-14.338,-14.3571,0,0,-14.3409,-14.3413,0,0,0,0,0,0,0,0,-14.3042,-14.3048,-14.3331,-14.3332,-14.3333,-14.3421,-14.3422,-14.3423,-14.3299,-14.3293,-14.3288,-14.3283,-14.3364,-14.3371,-14.3379,0,0,0,0,0,0,0,0,0,0,0,0,0,0,0,-14.3331,-14.3332,0,-14.3421,-14.3422,-14.3423,-14.3298,-14.3294,-14.3289,-14.3285,-14.3366,-14.3372,-14.3378,0,0,0,0,0,0,0,0,0,0,0,0,0,0,0,0,0,0,0,0,0,0,0,0,0,0,0,0,0,0,0,0,0,0,0,0,0,0,0,0,0,0,0,0,0,0,0,0,0,0,0,0,0,0,0,0,0,0,0,0,0,0,0,0,0,0,0,0,0]}]]]